COSMOS 886 DEB, 14800

Orbit data source: Space-Track

COSMOS 886 DEB, 14800 is space debris in LEO originally from a launch on Mon, 27 Dec 1976 UTC launched from the Tyuratam Missile And Space Complex (TTMTR). Debris objects in space refer to the collection of defunct objects orbiting the Earth. Examples of debris include non-operational satellites, rocket bodies, and fragments generated from explosions, collisions, or faulty payload assembly.

Loading next visibility...
Identifier
14800, 1976-126BS
Orbit
LEO
Country
Flag of CISCIS
Related business
Manufacturer
Unknown
Mission
Spacecraft
Bus & Motor
Unknown
Mass
Unknown
Launch date (UTC)
1976-12-27 (49 years ago)
Launch vehicle
Unknown
Launch site
Tyuratam Missile And Space Complex (TTMTR)
Object type
Payload
Rocket body
Debris
Shape & HBR
Unknown shape, 0.1 m
Radar Cross Section
Medium (>0.1 m² and <1 m²)

Expand to show TLE details & history
Last TLE update: 1 day ago

TLE from 1 day ago
0 COSMOS 886 DEB
1 14800U 76126BS  26129.42586008  .00000102  00000-0  20816-2 0  9990
2 14800  65.7514 107.9892 0600848  99.6467  54.9486 11.50809683822331
Epoch: 2026-05-09T10:13Z
TLE epoch observation values (Epoch: 2026-05-09T10:13:14.310Z)
Latitude
17.74944°
Longitude
-100.81337°
Altitude
1,645.233 km
Speed
7.163 km/s
True Right ascension
18h 38m 57s
True Declination
17° 39' 39"
Sunlit
Object was in daylight at epoch
Visualization orbit readout
Latitude
Unknown
Longitude
Unknown
Altitude
Unknown
Speed
Unknown
Apparent Right ascension
Unknown
Apparent Declination
Unknown
Sunlit
N/A
Visualization observer readout
Local Sidereal Time
23:29:11
Azimuth
Unknown
Elevation
Unknown
Doppler factor
Unknown
Orbital elements
Apogee altitude
2,405.436 km
Perigee altitude
1,409.744 km
Semi-major axis
8,285.727 km
Eccentricity
0.06008
Inclination
65.7514°
RAAN
107.9892°
Arg. of periapsis
99.6467°
True anomaly
60.8283°
Mean anomaly
54.9486°
Eccentric anomaly
57.86375°
Mean motion
2.87771 °/min
Orbital period
125.1 mins
BSTAR
0.0020816
Loading maneuver chart data...
Computing Atmospheric mass density...
Loading historical data...
Loading historical data...
Loading historical data...
Loading historical data...
Loading historical data...
Loading historical data...
Loading historical data...

Documentation

Showing up to 5 results
|